Hourly Data Report for October 03, 2017

All times are specified in Local Standard Time (LST). Add 1 hour to adjust for Daylight Saving Time where and when it is observed.

SQUAMISH AIRPORT
BRITISH COLUMBIA

49°46'59.550" N
123°09'40.300" W
53.70 m
10476F0
71207
WSK

Download Data

Hourly Data (October 2017)
Hourly Data Report for October 3, 2017
Temp Definition
°C
Dew Point Temp Definition
°C
Rel Hum Definition
%
Wind Dir Definition
10's deg

Wind Spd Definition
km/h
Visibility Definition
km
Stn Press Definition
kPa
Hmdx Definition


Wind Chill Definition


Weather Definition


TIME
00:00 7.6 2.0 68 5 2   101.99     LegendNANA
01:00 6.8 2.3 73 36 2   102.04     LegendNANA
02:00 5.6 2.4 80 8 1   102.06     LegendNANA
03:00 5.0 2.0 81 6 2   102.07     LegendNANA
04:00 5.2 2.4 82 4 3   102.08     LegendNANA
05:00 5.8 1.6 74 1 4   102.11     LegendNANA
06:00 5.9 2.3 78 2 5   102.13     LegendNANA
07:00 4.8 2.6 86 2 4   102.13     LegendNANA
08:00 7.6 2.4 70 32 3   102.16     LegendNANA
09:00 10.5 2.1 56 33 5   102.17     LegendNANA
10:00 13.5 1.7 45 32 4   102.11     LegendNANA
11:00 16.2 1.3 36 34 4   102.03     LegendNANA
12:00 18.1 1.5 33 2 3   101.93     LegendNANA
13:00 19.3 -0.7 26 31 5   101.84     LegendNANA
14:00 20.2 0.5 27 20 5   101.75     LegendNANA
15:00 19.1 0.5 29 16 13   101.72     LegendNANA
16:00 16.8 0.5 33 15 8   101.69     LegendNANA
17:00 13.2 4.8 57 4 4   101.68     LegendNANA
18:00 10.4 4.7 68 4 3   101.69     LegendNANA
19:00 8.7 4.4 74 2 3   101.74     LegendNANA
20:00 7.6 4.2 79 5 2   101.75     LegendNANA
21:00 6.7 4.5 86 4 2   101.76     LegendNANA
22:00 6.0 4.1 87 5 2   101.77     LegendNANA
23:00 5.8 4.1 89 4 4   101.79     LegendNANA

Notes on Data Quality.

Legend

  • E = Estimated
  • M = Missing
  • NA = Not Available
  • ‡ = Partner data that is not subject to review by the National Climate Archives
Date modified: